Home   Weather   Ålesund   Past weeks

Flag for Norway Past Weather in Ålesund, Norway — Yesterday and Last 2 Weeks

Now
54 °F

Sprinkles. Partly cloudy.


Feels Like: 48 °F
Forecast: 52 / 56 °F
Wind: 23 mph from Southwest

Location: Alesund / Vigra

Current Time: Sep 28, 2016 at 12:24:37 AM

Latest Report: Sep 27, 2016 at 11:50 PM


Visibility: N/A

Pressure: 29.39 "Hg

Humidity: 77%

Dew Point: 46 °F

Location of ÅlesundLocation

Past Weather in Ålesund — Graph

°F

Ålesund Temperature Yesterday

Maximum temperature yesterday: 61 °F (at 1:50 PM)
Minimum temperature yesterday: 55 °F (at 12:20 AM)
Average temperature yesterday: 57 °F

High & Low Weather Summary for the Past Weeks

 TemperatureHumidityPressure
High75 °F (Sep 13, 3:50 PM)100% (Sep 14, 2:20 AM)30.18 "Hg (Sep 14, 2:20 AM)
Low50 °F (Sep 26, 8:50 PM)40% (Sep 25, 8:50 PM)29.39 "Hg (Sep 27, 10:50 PM)
Average60 °F80%30.01 "Hg
* Reported Sep 12 10:20 PM — Sep 27 10:50 PM, Ålesund, Weather by CustomWeather, © 2016

Note: Actual official high and low records may vary slightly from our data, if they occured in-between our weather recording intervals... More about our weather records

Advertising

Ålesund Weather History for the Previous 24 Hours

Scroll right to see more
 ConditionsComfort  
Time TempWeatherWind HumidityBarometerVisibility
10:50 PM
Tue, Sep 27
55 °FPassing clouds.15 mph72%29.39 "HgN/A
10:20 PM55 °FPartly cloudy.20 mph67%29.42 "HgN/A
9:50 PM57 °FPassing clouds.16 mph67%29.42 "HgN/A
9:20 PM57 °FPartly cloudy.14 mph67%29.45 "HgN/A
8:50 PM55 °FPartly cloudy.20 mph77%29.45 "HgN/A
8:20 PM55 °FLight rain. Passing clouds.21 mph77%29.45 "HgN/A
7:50 PM57 °FPassing clouds.20 mph67%29.42 "HgN/A
7:20 PM55 °FSprinkles. Partly cloudy.22 mph77%29.42 "HgN/A
6:50 PM55 °FSprinkles. Broken clouds.13 mph77%29.47 "HgN/A
6:20 PM57 °FLight rain. Partly sunny.9 mph72%29.47 "HgN/A
5:50 PM59 °FLight rain. Partly sunny.13 mph68%29.50 "HgN/A
5:20 PM61 °FPartly sunny.12 mph55%29.53 "HgN/A
4:50 PM61 °FPartly sunny.17 mph55%29.56 "HgN/A
4:20 PM61 °FBroken clouds.15 mph55%29.59 "HgN/A
3:50 PM59 °FScattered clouds.15 mph63%29.65 "HgN/A
3:20 PM59 °FBroken clouds.14 mph59%29.68 "HgN/A
2:50 PM59 °FBroken clouds.14 mph63%29.71 "HgN/A
2:20 PM57 °FLight rain. Partly sunny.16 mph67%29.77 "HgN/A
1:50 PM61 °FSunny.15 mph55%29.77 "Hg10 mi
1:20 PM59 °FPartly sunny.12 mph59%29.83 "HgN/A
12:50 PM59 °FSunny.12 mph59%29.83 "Hg10 mi
12:20 PM57 °FPartly sunny.10 mph63%29.86 "HgN/A
11:50 AM57 °FScattered showers. Partly sunny.10 mph63%29.89 "HgN/A
11:20 AM57 °FLight rain. Partly sunny.10 mph67%29.92 "HgN/A
10:50 AM57 °FPartly sunny.10 mph63%29.92 "HgN/A
10:20 AM55 °FPartly sunny.8 mph67%29.95 "HgN/A
9:50 AM55 °FPartly sunny.9 mph67%29.95 "HgN/A
9:20 AM55 °FPartly sunny.9 mph67%29.98 "HgN/A
8:50 AM55 °FDrizzle. Partly sunny.12 mph67%29.98 "HgN/A
8:20 AM55 °FPartly sunny.13 mph63%30.01 "HgN/A
7:50 AM57 °FSunny.14 mph59%30.01 "Hg10 mi
7:20 AM57 °FClear.9 mph59%30.04 "Hg10 mi
6:50 AM57 °FClear.8 mph63%30.04 "Hg10 mi
6:20 AM57 °FPassing clouds.6 mph63%30.04 "HgN/A
5:50 AM57 °FClear.6 mph67%30.07 "Hg10 mi
5:20 AM55 °FPassing clouds.6 mph72%30.07 "HgN/A
4:50 AM55 °FMostly cloudy.6 mph72%30.07 "HgN/A
4:20 AM55 °FOvercast.8 mph63%30.07 "HgN/A
3:50 AM55 °FOvercast.8 mph72%30.07 "HgN/A
3:20 AM55 °FOvercast.7 mph72%30.09 "HgN/A
2:50 AM57 °FPassing clouds.8 mph63%30.09 "HgN/A
2:20 AM57 °FPartly cloudy.7 mph59%30.09 "HgN/A
1:50 AM57 °FPartly cloudy.9 mph59%30.09 "HgN/A
1:20 AM57 °FPartly cloudy.9 mph67%30.09 "HgN/A
12:50 AM57 °FPassing clouds.6 mph67%30.12 "HgN/A
12:20 AM55 °FPassing clouds.6 mph72%30.12 "HgN/A
Weather by CustomWeather, © 2016

See weather overviewHow to use our weather pages